ALTAIR (RS65S)

Last updated on Tue Aug 25 2026 00:03:14 GMT+0000 (Coordinated Universal Time)

1 61779U 24199AW 26236.57456336 .00010677 00000+0 28518-3 0 9990 2 61779 97.2930 105.4946 0014041 64.1209 296.1482 15.38175501147621
UTC large
Height (km)
Speed (km/s)
/
Latitude / Longitude
Inclination (degrees)
Orbital Period (minutes)
Azimuth
Elevation
Range (km)
Doppler Factor

Next 0 passes for location: London (51.5072 / 0.1276)

No passes found over London.
ALTAIR (RS65S)